| time (UTC) | temp C | wind direction | speed KPH | gust KPH | rain 1hr cm | rain 24hr cm | rain mn cm | humidity % | barometer mb |
| 20260505224536 | 26 | 248 | 12.9 | 24.1 | 0.00 | 0.08 | 0.08 | 37 | 1005.9 |
| 20260505223516 | 26 | 270 | 9.7 | 19.3 | 0.00 | 0.08 | 0.08 | 37 | 1005.9 |
| 20260505222516 | 26 | 270 | 11.3 | 20.9 | 0.00 | 0.08 | 0.08 | 37 | 1005.7 |
| 20260505221516 | 26 | 270 | 14.5 | 25.7 | 0.00 | 0.08 | 0.08 | 37 | 1005.6 |
| 20260505220516 | 26 | 270 | 11.3 | 19.3 | 0.00 | 0.08 | 0.08 | 38 | 1005.7 |
| 20260505215536 | 26 | 270 | 12.9 | 25.7 | 0.00 | 0.08 | 0.08 | 37 | 1005.7 |
| 20260505214516 | 26 | 270 | 16.1 | 35.4 | 0.00 | 0.08 | 0.08 | 37 | 1005.8 |
| 20260505213516 | 26 | 225 | 17.7 | 30.6 | 0.00 | 0.08 | 0.08 | 37 | 1005.8 |
| 20260505212516 | 26 | 270 | 16.1 | 29.0 | 0.00 | 0.08 | 0.08 | 37 | 1005.8 |
| 20260505211516 | 27 | 270 | 16.1 | 27.4 | 0.00 | 0.08 | 0.08 | 36 | 1005.8 |
| 20260505210516 | 27 | 270 | 17.7 | 38.6 | 0.00 | 0.08 | 0.08 | 36 | 1005.6 |
| 20260505205516 | 27 | 225 | 14.5 | 35.4 | 0.00 | 0.08 | 0.08 | 37 | 1005.7 |
| 20260505204516 | 26 | 225 | 12.9 | 22.5 | 0.00 | 0.08 | 0.08 | 36 | 1005.6 |
| 20260505203516 | 26 | 270 | 14.5 | 25.7 | 0.00 | 0.08 | 0.08 | 37 | 1005.6 |
| 20260505202516 | 27 | 225 | 14.5 | 30.6 | 0.00 | 0.08 | 0.08 | 35 | 1005.5 |
| 20260505201536 | 27 | 270 | 14.5 | 25.7 | 0.00 | 0.08 | 0.08 | 36 | 1005.8 |
| 20260505200516 | 27 | 225 | 16.1 | 30.6 | 0.00 | 0.08 | 0.08 | 35 | 1005.6 |
| 20260505195516 | 28 | 270 | 12.9 | 29.0 | 0.00 | 0.08 | 0.08 | 34 | 1005.9 |
| 20260505194516 | 27 | 225 | 14.5 | 24.1 | 0.00 | 0.08 | 0.08 | 35 | 1005.9 |
| 20260505193636 | 28 | 270 | 16.1 | 32.2 | 0.00 | 0.08 | 0.08 | 35 | 1006.0 |
| 20260505192516 | 28 | 270 | 11.3 | 20.9 | 0.00 | 0.08 | 0.08 | 34 | 1006.0 |
| 20260505191516 | 27 | 270 | 14.5 | 22.5 | 0.00 | 0.08 | 0.08 | 35 | 1006.0 |
| 20260505190516 | 28 | 270 | 17.7 | 33.8 | 0.00 | 0.08 | 0.08 | 33 | 1006.2 |
| 20260505185516 | 28 | 270 | 14.5 | 22.5 | 0.00 | 0.08 | 0.08 | 35 | 1006.2 |
| 20260505184516 | 28 | 270 | 16.1 | 25.7 | 0.00 | 0.08 | 0.08 | 33 | 1006.4 |
| 20260505183536 | 28 | 270 | 12.9 | 22.5 | 0.00 | 0.08 | 0.08 | 36 | 1006.5 |
| 20260505182516 | 28 | 270 | 16.1 | 33.8 | 0.00 | 0.08 | 0.08 | 35 | 1006.5 |
| 20260505181516 | 27 | 270 | 12.9 | 24.1 | 0.00 | 0.08 | 0.08 | 38 | 1006.8 |
| 20260505180516 | 27 | 270 | 12.9 | 20.9 | 0.00 | 0.08 | 0.08 | 39 | 1007.0 |
| 20260505175516 | 27 | 270 | 16.1 | 37.0 | 0.00 | 0.08 | 0.08 | 38 | 1007.2 |
| 20260505174516 | 27 | 270 | 14.5 | 25.7 | 0.00 | 0.08 | 0.08 | 38 | 1007.1 |
| 20260505173516 | 27 | 248 | 17.7 | 30.6 | 0.00 | 0.08 | 0.08 | 36 | 1007.2 |
| 20260505172516 | 27 | 270 | 14.5 | 32.2 | 0.00 | 0.08 | 0.08 | 41 | 1007.4 |
| 20260505171516 | 27 | 270 | 11.3 | 22.5 | 0.00 | 0.08 | 0.08 | 41 | 1007.4 |
| 20260505170516 | 26 | 270 | 11.3 | 19.3 | 0.00 | 0.08 | 0.08 | 43 | 1007.5 |
| 20260505165516 | 26 | 270 | 11.3 | 20.9 | 0.00 | 0.08 | 0.08 | 43 | 1007.7 |
| 20260505164516 | 26 | 270 | 11.3 | 22.5 | 0.00 | 0.08 | 0.08 | 44 | 1007.8 |
| 20260505163516 | 26 | 270 | 12.9 | 24.1 | 0.00 | 0.08 | 0.08 | 43 | 1008.0 |
| 20260505162536 | 26 | 270 | 14.5 | 25.7 | 0.00 | 0.08 | 0.08 | 43 | 1008.2 |
| 20260505161516 | 26 | 270 | 12.9 | 24.1 | 0.00 | 0.08 | 0.08 | 46 | 1008.2 |
| 20260505160515 | 26 | 270 | 11.3 | 19.3 | 0.00 | 0.08 | 0.08 | 47 | 1008.3 |
| 20260505152515 | 24 | 270 | 8.0 | 14.5 | 0.00 | 0.08 | 0.08 | 51 | 1008.7 |
| 20260505151515 | 24 | 270 | 8.0 | 12.9 | 0.00 | 0.08 | 0.08 | 51 | 1008.8 |
| 20260505150516 | 23 | 270 | 11.3 | 17.7 | 0.00 | 0.08 | 0.08 | 52 | 1008.9 |
| 20260505140616 | 20 | 270 | 6.4 | 14.5 | 0.00 | 0.08 | 0.08 | 64 | 1009.5 |
| 20260505124517 | 17 | 225 | 6.4 | 11.3 | 0.00 | 0.08 | 0.08 | 71 | 1009.6 |
| 20260505123517 | 17 | 203 | 3.2 | 8.0 | 0.00 | 0.08 | 0.08 | 73 | 1009.4 |
| 20260505122517 | 16 | 270 | 4.8 | 6.4 | 0.00 | 0.08 | 0.08 | 73 | 1009.4 |
| 20260505121535 | 16 | 270 | 4.8 | 8.0 | 0.00 | 0.08 | 0.08 | 74 | 1009.6 |
| 20260505120517 | 16 | 293 | 3.2 | 6.4 | 0.00 | 0.08 | 0.08 | 77 | 1009.4 |
| 20260505115517 | 15 | 225 | 4.8 | 9.7 | 0.00 | 0.08 | 0.08 | 78 | 1009.2 |
| 20260505114557 | 15 | 270 | 1.6 | 4.8 | 0.00 | 0.08 | 0.08 | 79 | 1009.2 |
| 20260505113517 | 15 | 225 | 1.6 | 8.0 | 0.00 | 0.08 | 0.08 | 80 | 1009.3 |
| 20260505112517 | 14 | 225 | 3.2 | 8.0 | 0.00 | 0.08 | 0.08 | 81 | 1009.3 |
| 20260505111517 | 13 | 293 | 3.2 | 6.4 | 0.00 | 0.08 | 0.08 | 82 | 1009.2 |
| 20260505110517 | 13 | 0.0 | 4.8 | 0.00 | 0.08 | 0.08 | 83 | 1009.2 | |
| 20260505101517 | 12 | 203 | 1.6 | 4.8 | 0.00 | 0.08 | 0.08 | 85 | 1008.7 |
| 20260505100517 | 12 | 0.0 | 3.2 | 0.00 | 0.08 | 0.08 | 85 | 1008.6 | |
| 20260505095517 | 12 | 0.0 | 3.2 | 0.08 | 0.08 | 0.08 | 85 | 1008.6 | |
| 20260505094557 | 12 | 270 | 1.6 | 4.8 | 0.08 | 0.08 | 0.08 | 85 | 1008.7 |
| 20260505093517 | 12 | 0.0 | 3.2 | 0.08 | 0.08 | 0.08 | 84 | 1008.9 | |
| 20260505092517 | 12 | 0.0 | 0.0 | 0.08 | 0.08 | 0.08 | 83 | 1009.1 | |
| 20260505091517 | 13 | 225 | 1.6 | 4.8 | 0.08 | 0.08 | 0.08 | 81 | 1009.2 |
| 20260505090517 | 13 | 225 | 1.6 | 4.8 | 0.08 | 0.08 | 0.08 | 77 | 1008.8 |
| 20260505085517 | 14 | 270 | 1.6 | 6.4 | 0.00 | 0.00 | 0.00 | 71 | 1009.3 |
| 20260505084517 | 14 | 248 | 1.6 | 3.2 | 0.00 | 0.00 | 0.00 | 70 | 1008.9 |
| 20260505083517 | 13 | 0.0 | 3.2 | 0.00 | 0.00 | 0.00 | 71 | 1008.8 | |
| 20260505082516 | 13 | 0.0 | 3.2 | 0.00 | 0.00 | 0.00 | 72 | 1008.8 | |
| 20260505081517 | 13 | 0.0 | 0.0 | 0.00 | 0.00 | 0.00 | 71 | 1008.5 | |
| 20260505080516 | 13 | 0.0 | 0.0 | 0.00 | 0.00 | 0.00 | 69 | 1008.5 | |
| 20260505075517 | 14 | 0.0 | 3.2 | 0.00 | 0.00 | 0.00 | 68 | 1008.4 | |
| 20260505074617 | 15 | 0.0 | 0.0 | 0.00 | 0.00 | 0.00 | 66 | 1008.4 | |
| 20260505073517 | 15 | 0.0 | 1.6 | 0.00 | 0.00 | 0.00 | 64 | 1008.5 | |
| 20260505072517 | 15 | 0.0 | 3.2 | 0.00 | 0.00 | 0.00 | 63 | 1008.4 | |
| 20260505071517 | 15 | 0.0 | 3.2 | 0.00 | 0.00 | 0.00 | 62 | 1008.4 | |
| 20260505070517 | 15 | 225 | 1.6 | 6.4 | 0.00 | 0.00 | 0.00 | 62 | 1008.4 |
| 20260505065516 | 15 | 225 | 3.2 | 9.7 | 0.00 | 0.00 | 0.00 | 62 | 1008.5 |
| 20260505064517 | 15 | 270 | 1.6 | 6.4 | 0.00 | 0.00 | 0.00 | 63 | 1008.5 |
| 20260505063517 | 14 | 0.0 | 3.2 | 0.00 | 0.00 | 0.00 | 65 | 1008.5 | |
| 20260505062537 | 15 | 0.0 | 0.0 | 0.00 | 0.00 | 0.00 | 63 | 1008.6 | |
| 20260505061517 | 15 | 0.0 | 0.0 | 0.00 | 0.00 | 0.00 | 61 | 1008.7 | |
| 20260505060517 | 16 | 0.0 | 0.0 | 0.00 | 0.00 | 0.00 | 59 | 1008.6 | |
| 20260505055537 | 16 | 270 | 1.6 | 3.2 | 0.00 | 0.00 | 0.00 | 56 | 1008.7 |
| 20260505054516 | 16 | 225 | 3.2 | 9.7 | 0.00 | 0.00 | 0.00 | 56 | 1008.6 |
| 20260505053516 | 16 | 270 | 3.2 | 9.7 | 0.00 | 0.00 | 0.00 | 55 | 1008.7 |
| 20260505052516 | 16 | 248 | 3.2 | 8.0 | 0.00 | 0.00 | 0.00 | 55 | 1008.7 |
| 20260505051516 | 16 | 270 | 1.6 | 4.8 | 0.00 | 0.00 | 0.00 | 54 | 1008.7 |
| 20260505050516 | 17 | 248 | 3.2 | 8.0 | 0.00 | 0.00 | 0.00 | 53 | 1008.5 |
| 20260505041516 | 17 | 270 | 4.8 | 11.3 | 0.00 | 0.00 | 0.00 | 50 | 1008.4 |
| 20260505040516 | 17 | 248 | 3.2 | 8.0 | 0.00 | 0.00 | 0.00 | 50 | 1008.2 |
| 20260505035537 | 17 | 225 | 4.8 | 11.3 | 0.00 | 0.00 | 0.00 | 49 | 1008.2 |
| 20260505034517 | 17 | 225 | 4.8 | 11.3 | 0.00 | 0.00 | 0.00 | 49 | 1008.2 |
| 20260505033517 | 18 | 270 | 4.8 | 12.9 | 0.00 | 0.00 | 0.00 | 49 | 1008.2 |
| 20260505032517 | 18 | 248 | 6.4 | 14.5 | 0.00 | 0.00 | 0.00 | 48 | 1008.3 |
| 20260505031517 | 18 | 225 | 6.4 | 12.9 | 0.00 | 0.00 | 0.00 | 48 | 1008.3 |
| 20260505030517 | 18 | 203 | 6.4 | 14.5 | 0.00 | 0.00 | 0.00 | 48 | 1008.4 |
| 20260505025537 | 17 | 225 | 6.4 | 11.3 | 0.00 | 0.00 | 0.00 | 48 | 1008.4 |
| 20260505024517 | 18 | 270 | 3.2 | 9.7 | 0.00 | 0.00 | 0.00 | 48 | 1008.5 |
| 20260505023517 | 17 | 248 | 3.2 | 6.4 | 0.00 | 0.00 | 0.00 | 48 | 1008.5 |
| 20260505022517 | 18 | 270 | 3.2 | 8.0 | 0.00 | 0.00 | 0.00 | 48 | 1008.5 |
| 20260505021517 | 18 | 248 | 3.2 | 9.7 | 0.00 | 0.00 | 0.00 | 47 | 1008.7 |
| 20260505020517 | 18 | 248 | 1.6 | 4.8 | 0.00 | 0.00 | 0.00 | 47 | 1008.7 |
| 20260505015517 | 18 | 248 | 3.2 | 8.0 | 0.00 | 0.00 | 0.00 | 47 | 1008.6 |
| 20260505014517 | 18 | 225 | 3.2 | 8.0 | 0.00 | 0.00 | 0.00 | 47 | 1008.5 |
| 20260505013516 | 18 | 270 | 3.2 | 8.0 | 0.00 | 0.00 | 0.00 | 46 | 1008.5 |
| 20260505012557 | 18 | 248 | 3.2 | 6.4 | 0.00 | 0.00 | 0.00 | 46 | 1008.4 |
| 20260505011517 | 18 | 248 | 1.6 | 8.0 | 0.00 | 0.00 | 0.00 | 46 | 1008.2 |
| 20260505010517 | 18 | 248 | 3.2 | 8.0 | 0.00 | 0.00 | 0.00 | 46 | 1008.2 |
| 20260505005557 | 18 | 203 | 3.2 | 6.4 | 0.00 | 0.00 | 0.00 | 45 | 1008.2 |
| 20260505004517 | 18 | 225 | 3.2 | 8.0 | 0.00 | 0.00 | 0.00 | 45 | 1007.9 |
| 20260505003517 | 19 | 270 | 4.8 | 12.9 | 0.00 | 0.00 | 0.00 | 44 | 1007.9 |
| 20260505002516 | 19 | 225 | 6.4 | 14.5 | 0.00 | 0.00 | 0.00 | 44 | 1007.8 |
| 20260505001516 | 19 | 203 | 3.2 | 8.0 | 0.00 | 0.00 | 0.00 | 43 | 1007.6 |
| 20260505000517 | 20 | 203 | 6.4 | 12.9 | 0.00 | 0.00 | 0.00 | 43 | 1007.6 |
| 20260504235517 | 20 | 270 | 8.0 | 16.1 | 0.00 | 0.00 | 0.00 | 42 | 1007.5 |
| 20260504234517 | 20 | 248 | 8.0 | 16.1 | 0.00 | 0.00 | 0.00 | 42 | 1007.4 |
| 20260504233517 | 20 | 203 | 8.0 | 14.5 | 0.00 | 0.00 | 0.00 | 42 | 1007.2 |
| 20260504232517 | 20 | 270 | 9.7 | 20.9 | 0.00 | 0.00 | 0.00 | 41 | 1007.1 |
| 20260504231537 | 21 | 270 | 9.7 | 17.7 | 0.00 | 0.00 | 0.00 | 41 | 1007.0 |
| 20260504230536 | 21 | 270 | 8.0 | 16.1 | 0.00 | 0.00 | 0.00 | 40 | 1006.9 |
| 20260504225516 | 21 | 248 | 9.7 | 20.9 | 0.00 | 0.00 | 0.00 | 39 | 1006.9 |